Tracking 23752 objects as of 23-Oct-2021
HD Live streaming from Space Station
objects crossing your sky now

FREGAT DEB

Track FREGAT DEB now!
10-day predictions


NORAD ID: 45923
Int'l Code: 2011-037EM
Perigee: 473.4 km
Apogee: 1,919.3 km
Inclination: 51.5 °
Period: 109.2 minutes
Semi major axis: 7567 km
RCS: Unknown
Launch date: July 18, 2011
Source: Commonwealth of Independent States (former USSR) (CIS)
Launch site: TYURATAM MISSILE AND SPACE COMPLEX (TTMTR)

Note: This is SATELLITE DEBRIS
aabbcc
Your satellite tracking list
Your tracking list is empty




NASA's NSSDC Master Catalog

Two Line Element Set (TLE):
1 45923U 11037EM  21295.19257930  .00041563  00000-0  80035-2 0  9997
2 45923  51.4669 255.9941 0955368 146.4459 220.0856 13.18834472 58928
Source of the keplerian elements: AFSPC